Location: La Silve
(44.2414°N, 5.8889°E)
Time: 05:15:48
(UTC+00:00)

USA 215 - Pass Details

Date: 01 December 2020
Orbit: 1098 x 1110 km, 123.0° (Epoch: 22 January)

Event Time Altitude Azimuth Distance (km) Brightness Sun altitude
Exits shadow 16:59:29 13° 70° (ENE) 2,743 4.7 -10.6°
Maximum altitude 17:04:28 31° 127° (SE) 1,826 4.2 -11.5°
Drops below altitude 10° 17:10:09 10° 188° (S) 2,964 5.9 -12.4°
Sets 17:12:57 0° 198° (SSW) 3,918 6.7 -12.9°
